User: anonymous   Login
Location: Unspecified
(0.0000°N, 0.0000°E)
Time: 07:14:42
(UTC+00:00)
Language:

XW-2C - Orbit

View from above orbital plane
View from above orbital plane
View from above satellite
View from above satellite

Ground track
Ground track

The orbit data is extracted from the following two-line orbital elements,

1 40906U 15049H   19144.97001513  .00000281  00000-0  18247-4 0  9990
2 40906  97.4660 147.4594 0013260 288.1207 127.6876 15.15641855203257
Epoch (UTC): 24 May 2019 23:16:49
Eccentricity: 0.0013260
inclination: 97.4660°
perigee height: 510 km
apogee height: 528 km
right ascension of ascending node: 147.4594°
argument of perigee: 288.1207°
revolutions per day: 15.15641855
mean anomaly at epoch: 127.6876°
orbit number at epoch: 20325

The dashed part of the orbit path shows where the satellite is in the earth's shadow,  

DLR